Location: Newark
(29.9790°N, 31.1340°E)
Time: 02:53:20
(UTC+00:00)

Transit 2A Rocket - All Passes

Search period start: 18 January 2020 00:00
Search period end: 28 January 2020 00:00
Orbit: 593 x 910 km, 66.7° (Epoch: 17 January)

Date Brightness Start Highest point End Pass type
(mag) Time Alt. Az. Time Alt. Az. Time Alt. Az.
18 Jan - 03:58:07 10° S 04:02:25 51° ESE 04:06:35 10° NE visible
18 Jan - 05:43:55 10° WNW 05:45:10 11° NW 05:46:24 10° NW daylight
18 Jan - 12:48:21 10° NNE 12:50:17 12° NE 12:52:17 10° ENE daylight
18 Jan - 14:28:07 10° NNW 14:33:07 70° WSW 14:38:36 10° SSE daylight
19 Jan - 03:16:28 10° SSE 03:20:01 24° ESE 03:23:28 10° NE visible
19 Jan - 04:59:01 10° WSW 05:02:24 22° WNW 05:05:45 10° N daylight
19 Jan - 13:45:40 10° NNW 13:50:37 62° ENE 13:56:02 10° SE daylight
19 Jan - 15:30:46 10° W 15:32:47 12° WSW 15:34:52 10° SW daylight
20 Jan - 02:36:25 10° ESE 02:37:41 11° ESE 02:38:56 10° E visible
20 Jan - 04:15:35 10° SW 04:19:46 43° WNW 04:23:53 10° N visible
20 Jan - 13:03:32 10° N 13:08:02 33° ENE 13:12:53 10° SE daylight
20 Jan - 14:46:21 10° NW 14:50:26 24° WSW 14:54:46 10° SSW daylight
21 Jan - 03:32:50 10° SSW 03:37:15 86° ESE 03:41:33 10° NNE visible
21 Jan - 12:21:55 10° NNE 12:25:22 18° ENE 12:28:59 10° E daylight
21 Jan - 14:03:09 10° NW 14:08:00 45° WSW 14:13:16 10° S daylight
22 Jan - 02:50:42 10° S 02:54:48 38° ESE 02:58:48 10° NE visible
22 Jan - 04:35:07 10° W 04:37:25 14° NW 04:39:43 10° NNW daylight
22 Jan - 13:20:27 10° NNW 13:25:31 87° WSW 13:31:04 10° SSE daylight
23 Jan - 02:09:24 10° SSE 02:12:26 18° ESE 02:15:25 10° ENE visible
23 Jan - 03:50:59 10° WSW 03:54:42 27° WNW 03:58:23 10° N visible
23 Jan - 12:38:05 10° NNW 12:43:00 50° ENE 12:48:19 10° SE daylight
23 Jan - 14:22:09 10° WNW 14:25:14 16° WSW 14:28:27 10° SW daylight
24 Jan - 03:07:48 10° SW 03:12:07 57° WNW 03:16:20 10° NNE visible
24 Jan - 11:56:07 10° N 12:00:23 27° ENE 12:04:57 10° ESE daylight
24 Jan - 13:38:23 10° NW 13:42:51 30° WSW 13:47:38 10° S daylight
25 Jan - 02:25:16 10° SSW 02:29:37 65° ESE 02:33:52 10° NNE visible
25 Jan - 11:14:46 10° NNE 11:17:39 15° NE 11:20:40 10° E daylight
25 Jan - 12:55:23 10° NW 13:00:24 57° WSW 13:05:52 10° S daylight
26 Jan - 01:43:23 10° S 01:47:12 29° ESE 01:50:57 10° NE visible
26 Jan - 03:26:45 10° W 03:29:42 18° WNW 03:32:37 10° NNW visible
26 Jan - 12:12:49 10° NNW 12:17:54 76° ENE 12:23:28 10° SSE daylight
27 Jan - 01:02:33 10° SE 01:04:51 14° ESE 01:07:07 10° ENE night (unlit)
27 Jan - 02:43:02 10° SW 02:47:01 34° WNW 02:50:57 10° N visible
27 Jan - 11:30:34 10° N 11:35:21 40° ENE 11:40:31 10° SE daylight
27 Jan - 13:13:55 10° WNW 13:17:40 20° WSW 13:21:38 10° SSW daylight
